Theta_e
324 326 328 328 328 329 330 330 330 330 331 331 330 331 331 331 331 331 333 333 333 332 332 331 330 331 331 331 330 332 332 334 334 334 334 334 334 334 334 334 334 334 333 333 331 329 330 330 330 330 330 329 328 327 328 329 329 328 327 327 325 325 325 325 325 324 322 319 319 321 319 321 321 322 318 318 320 315 311 309 308 307 307 308 309
324 325 327 328 328 329 329 329 327 328 329 330 330 330 331 331 330 331 332 332 332 333 332 332 332 332 331 330 331 331 331 331 332 333 334 335 334 334 335 335 335 334 333 333 332 331 330 329 329 329 330 329 328 329 330 326 328 328 326 324 325 324 324 323 324 321 319 316 313 315 316 318 320 320 316 316 317 313 312 310 309 307 306 307 310
321 324 326 327 329 329 329 329 329 329 329 329 330 330 331 331 331 331 332 332 332 333 333 332 333 333 333 333 332 332 335 335 335 334 335 334 335 335 336 335 335 335 335 333 332 331 331 329 328 329 329 329 328 328 328 328 327 326 326 324 323 323 322 321 322 321 316 317 317 312 312 310 313 315 315 311 312 309 310 310 308 305 303 305 308
317 321 322 325 327 328 328 328 328 328 328 329 330 330 330 330 331 331 332 333 332 332 331 334 334 335 335 336 335 335 334 335 336 335 334 334 333 334 336 335 335 334 334 334 332 332 332 330 330 330 329 330 329 328 327 327 327 327 326 325 324 319 320 320 321 321 319 315 312 313 311 310 308 309 307 305 308 307 307 307 305 302 302 305 306
315 318 321 322 323 325 327 327 328 327 327 328 329 330 330 330 331 332 332 332 333 332 332 334 334 333 334 334 336 335 335 335 333 332 333 333 333 334 334 335 334 334 334 334 332 332 333 332 331 330 330 330 330 328 327 328 327 328 327 325 324 321 320 320 319 319 319 318 314 312 308 308 302 303 306 307 309 308 307 307 305 301 301 302 302
313 313 318 321 322 324 326 327 327 327 327 328 330 330 331 331 332 332 333 333 333 334 333 333 332 331 331 330 329 330 329 330 329 329 330 332 332 334 335 335 334 333 333 333 333 331 332 332 332 331 331 331 330 329 328 328 327 326 326 325 324 324 321 319 317 317 318 316 316 315 312 309 306 303 306 303 302 304 305 304 303 302 302 304 302
312 313 315 320 321 322 324 325 326 327 328 330 330 331 331 331 332 332 333 333 334 334 334 332 332 332 331 330 330 329 328 329 331 331 331 332 333 333 334 334 335 333 333 333 333 333 332 333 332 331 331 330 329 329 328 327 327 326 326 324 323 322 320 317 316 315 316 315 315 315 313 312 311 309 301 302 298 302 304 303 303 303 304 306 303
311 312 313 317 320 320 321 324 326 327 329 330 330 331 331 331 332 332 333 333 334 335 334 333 331 331 331 331 330 330 329 328 330 331 332 332 332 332 332 333 334 334 333 333 333 333 333 332 332 331 330 330 327 327 326 327 325 325 324 324 322 321 319 317 316 315 312 311 313 311 310 310 310 309 305 299 295 297 300 304 304 302 306 304 305
310 312 311 312 316 319 320 322 325 327 328 329 329 330 331 332 331 332 332 332 333 335 334 333 331 331 330 330 330 329 330 330 331 331 331 332 332 332 332 333 334 334 334 333 333 333 332 331 331 330 329 328 325 327 326 324 323 322 321 321 321 320 319 317 316 315 315 312 308 308 308 306 305 305 301 300 297 299 297 299 298 303 304 303 304
311 311 313 312 313 316 319 320 322 324 327 329 330 330 331 332 331 331 331 332 333 334 333 334 332 330 330 330 329 329 329 330 331 331 330 331 331 331 332 332 332 333 332 332 332 331 331 331 331 330 329 327 323 326 325 323 322 322 322 321 321 319 318 316 315 315 315 312 307 307 305 304 303 302 300 298 300 302 294 295 297 297 294 297 303
310 310 311 313 314 314 316 316 318 321 325 327 328 329 330 330 330 329 330 332 332 332 333 333 332 331 330 330 330 329 329 329 329 329 330 330 329 330 331 331 331 330 331 330 330 330 329 330 330 329 329 325 323 324 322 322 321 321 321 320 319 318 315 314 314 316 312 310 309 304 304 303 303 302 300 298 298 296 295 296 298 299 294 293 300
308 308 309 310 311 312 312 312 314 317 321 323 325 328 328 329 330 329 329 330 331 331 332 332 332 332 330 330 330 329 329 329 328 328 329 329 329 329 331 330 328 328 329 328 328 328 328 328 329 328 325 324 324 323 322 320 318 318 317 317 316 316 314 312 312 309 307 306 306 306 305 307 303 303 302 300 298 298 298 295 295 297 294 295 301
309 308 309 310 309 309 309 309 310 312 316 319 322 324 326 327 328 328 328 329 330 331 331 331 331 331 330 329 330 330 330 329 329 329 330 329 329 329 328 327 325 324 325 325 324 325 325 326 324 324 324 323 323 324 321 319 319 318 316 315 314 313 311 310 308 307 305 303 304 305 303 303 302 301 301 300 301 297 298 293 296 296 291 293 297
308 308 309 310 310 310 310 309 308 309 310 314 317 319 322 324 325 326 326 328 329 330 330 330 330 330 330 329 329 329 329 329 329 329 330 330 330 329 327 326 323 322 323 323 322 323 323 323 322 321 321 321 320 320 320 320 319 316 315 312 311 311 311 310 308 307 305 305 303 301 301 300 299 300 299 301 298 297 295 294 293 293 293 292 297
306 306 308 308 309 308 310 310 309 309 309 311 313 316 319 320 322 323 324 326 328 328 329 328 328 329 329 329 329 329 329 329 329 330 330 329 329 329 328 328 324 324 322 322 322 320 320 320 319 317 317 317 317 317 317 317 316 316 313 310 311 310 309 307 305 304 303 302 302 300 299 298 298 298 298 299 298 297 298 296 294 290 292 293 293
304 304 305 304 305 305 305 306 308 309 308 310 311 314 315 317 319 321 322 324 326 326 327 327 328 328 329 328 328 328 328 329 329 330 330 330 329 329 328 328 326 326 324 323 321 320 318 318 316 315 314 315 316 316 315 314 314 313 310 309 306 306 305 303 302 303 302 301 299 298 297 296 296 297 298 296 296 297 296 297 294 292 288 286 291
305 305 305 307 307 306 306 306 307 308 308 309 310 313 314 316 318 319 321 323 325 325 326 327 327 327 328 328 328 328 328 329 329 330 330 330 330 329 328 327 326 325 323 323 321 320 319 317 315 314 313 314 314 313 313 312 311 308 306 304 302 303 302 301 301 300 300 298 297 297 295 295 295 295 294 295 295 296 297 294 294 291 291 288 285
307 305 305 306 308 309 309 309 309 308 308 308 308 310 313 315 317 317 319 320 323 325 325 326 326 326 326 327 327 328 328 329 330 330 330 329 328 328 328 327 325 324 323 321 319 318 318 311 315 314 313 313 312 311 309 307 306 305 304 302 301 301 299 298 298 298 297 297 296 295 294 293 293 294 294 294 296 294 293 295 292 292 292 289 289
308 306 305 307 309 310 310 310 309 309 309 309 309 310 311 313 315 317 318 320 322 324 325 326 326 325 326 326 326 327 328 328 330 330 329 328 327 327 326 326 325 324 320 318 316 316 314 315 315 313 313 310 311 310 308 306 305 302 301 299 299 298 297 296 296 296 296 295 294 293 294 292 293 293 292 292 293 293 293 292 291 294 292 291 289
309 309 309 309 309 309 308 308 308 307 307 308 308 309 309 311 312 314 317 319 321 323 324 323 324 324 325 326 326 326 327 329 329 328 327 326 326 326 326 325 325 321 319 316 313 312 312 312 311 310 308 308 308 307 306 304 302 300 298 297 297 297 295 294 294 294 295 294 293 292 292 292 292 291 291 292 291 291 292 291 293 292 292 291 289
307 307 307 306 307 307 307 307 307 306 306 306 307 307 308 309 310 313 314 316 318 321 321 321 321 322 323 325 326 327 327 327 327 327 326 327 326 324 325 324 322 317 317 313 311 310 309 309 308 307 306 305 305 304 303 301 299 297 296 296 295 294 293 292 292 293 293 292 292 291 291 291 292 291 290 290 290 289 291 291 291 290 291 291 290
303 304 304 305 305 305 306 305 305 304 303 303 304 305 306 307 310 311 312 314 315 317 318 318 319 320 321 322 323 324 325 325 325 325 325 326 325 323 322 320 319 314 312 311 309 308 307 307 307 306 305 305 304 302 300 299 297 295 295 296 294 293 292 291 291 290 292 292 291 290 289 290 291 290 290 289 289 289 290 289 289 288 289 289 290
302 301 302 303 304 305 305 304 303 303 303 303 304 305 307 308 310 311 312 313 316 316 316 316 317 318 319 320 320 321 322 321 322 322 322 321 321 319 318 316 314 310 308 310 308 307 306 306 305 304 304 303 303 300 299 298 295 294 293 294 293 292 291 290 289 290 290 291 290 289 288 289 290 289 288 288 289 289 289 288 288 288 287 288 288
303 303 302 303 303 304 303 303 303 302 303 304 305 307 308 309 309 310 310 312 314 314 314 314 314 314 313 313 316 317 317 318 318 319 319 317 315 313 311 312 309 306 305 303 304 305 304 305 304 302 302 301 300 299 297 296 295 293 292 292 292 291 291 290 290 290 290 290 289 288 288 288 289 288 287 287 288 288 288 288 288 288 287 287 287
302 303 303 303 303 302 303 304 304 304 304 305 306 307 308 308 308 308 309 310 311 312 312 311 311 311 311 311 311 312 313 314 315 314 313 310 308 306 306 307 305 303 303 301 299 300 301 302 301 301 300 300 299 298 297 295 293 292 292 291 291 291 290 290 290 289 289 290 289 288 288 288 288 287 287 287 286 287 287 287 287 287 287 287 286
303 303 303 303 303 304 304 304 305 305 304 305 306 307 307 308 308 308 308 308 309 309 309 309 309 309 310 309 309 308 310 311 310 307 306 303 301 301 302 300 301 301 299 299 300 299 299 299 300 300 299 299 298 297 295 293 292 292 291 291 291 291 290 290 290 289 289 289 289 288 287 288 288 287 287 286 286 286 287 286 286 286 286 286 285
303 304 305 304 303 303 303 304 305 305 305 305 306 306 305 306 307 307 308 307 306 306 307 307 307 307 307 308 307 307 306 304 304 301 298 297 298 297 298 298 297 298 297 296 297 298 297 298 299 299 298 297 296 295 293 292 291 291 290 290 290 289 289 289 288 289 288 288 288 287 287 287 287 287 286 286 286 286 286 286 285 285 285 285 284
305 305 305 305 305 304 303 304 304 304 305 305 305 304 304 304 304 306 306 306 305 304 304 305 305 305 306 306 307 304 303 301 298 297 297 295 295 295 296 295 296 297 297 297 297 297 295 295 294 295 296 295 295 293 292 291 291 290 290 289 289 288 288 287 287 287 287 287 287 287 287 287 287 287 287 287 286 286 286 285 285 284 285 284 284
306 308 307 306 306 306 305 304 304 304 303 303 303 303 303 303 304 304 304 305 305 303 303 303 302 302 303 303 302 301 301 298 295 295 294 294 294 294 294 294 294 295 296 297 298 298 296 295 293 293 293 293 293 292 291 290 290 289 289 289 288 288 287 286 286 286 286 286 286 286 286 285 284 283 284 285 285 285 286 285 285 285 284 284 283
304 306 306 307 307 307 306 306 304 304 303 303 303 303 302 302 302 303 303 303 302 301 301 301 300 300 299 298 297 294 294 293 294 294 293 293 293 293 293 292 293 293 293 292 293 294 295 295 293 292 292 292 291 291 288 290 290 289 289 289 288 287 286 286 285 285 284 285 285 285 283 282 282 283 283 283 283 283 283 285 284 285 283 282 281
304 306 308 307 306 306 306 305 305 304 304 304 303 303 303 302 302 302 302 302 301 299 298 298 299 297 295 295 294 293 292 292 293 292 292 292 292 292 291 291 291 291 291 291 292 292 291 292 292 291 290 290 290 289 288 291 291 291 289 288 287 286 286 285 284 284 283 283 283 282 282 282 281 282 282 283 283 283 283 283 283 283 283 282 280
304 305 307 308 306 306 306 305 306 305 305 304 303 303 303 302 302 301 301 298 298 299 298 297 297 294 293 293 293 293 292 292 291 291 291 291 290 290 291 291 291 290 289 290 290 291 291 291 291 290 289 289 289 288 290 291 291 291 289 288 287 286 286 285 284 284 283 283 282 281 281 281 281 281 281 282 282 282 283 283 283 283 282 282 282
305 305 305 308 308 308 309 308 307 306 305 304 304 303 302 303 302 302 300 296 296 297 298 297 294 293 293 293 292 291 292 292 291 290 290 290 289 289 289 289 290 290 289 289 289 289 289 289 289 289 288 288 287 289 290 291 290 290 290 288 287 286 285 285 284 284 283 283 282 282 281 282 282 282 282 282 281 281 283 283 283 282 282 282 282
306 306 306 308 309 308 308 307 307 307 306 305 304 303 303 303 302 300 297 296 296 296 298 296 294 293 293 292 291 291 290 292 291 290 290 289 289 289 289 288 289 288 288 288 288 288 288 288 288 288 287 287 287 288 290 290 290 290 290 288 286 286 285 285 284 283 283 283 282 282 281 280 280 281 281 281 281 282 282 282 282 282 281 281 281
306 306 306 306 306 307 308 306 305 305 305 304 302 302 302 301 300 298 297 296 296 296 296 296 294 293 292 291 291 291 291 290 290 289 288 288 289 288 288 288 288 287 287 287 288 287 287 287 287 287 287 286 286 289 290 290 290 290 291 288 286 285 284 284 284 283 283 283 282 282 281 281 280 280 281 281 282 282 283 282 282 281 280 280 281
307 307 307 306 306 306 305 306 305 304 303 303 302 301 300 299 299 298 296 296 296 296 296 296 295 294 293 292 292 291 291 290 289 288 288 288 288 288 287 287 287 287 287 287 287 287 286 286 287 287 286 286 286 289 289 289 290 290 289 286 285 284 283 283 282 282 282 282 282 282 281 281 280 280 282 283 283 283 282 281 280 279 279 279 279
307 311 309 313 311 307 306 305 304 303 302 302 301 299 298 298 297 297 296 296 296 296 296 295 294 294 293 293 292 291 290 288 288 287 287 287 287 287 287 287 286 287 286 286 286 286 286 286 286 286 286 286 286 288 289 289 289 289 287 285 284 284 283 282 282 282 282 281 281 281 281 280 280 280 282 283 284 283 281 280 278 278 278 278 277
304 307 303 304 305 303 301 303 300 300 300 300 299 298 297 296 296 296 295 294 294 295 296 295 295 294 293 293 292 291 289 288 287 287 287 287 287 287 286 286 286 286 286 286 286 286 286 286 286 286 287 286 286 287 288 289 289 288 286 284 284 283 282 281 281 281 281 281 281 282 282 280 280 280 283 284 284 283 280 279 278 278 277 276 277
305 304 303 304 301 300 299 299 299 298 299 298 297 297 296 295 295 295 294 293 293 294 294 295 295 295 294 293 292 291 289 288 287 287 287 287 287 286 286 286 286 286 286 286 286 285 285 286 286 286 286 286 286 286 288 288 288 287 285 284 284 283 281 281 280 280 280 280 280 280 281 280 280 281 283 284 284 282 280 279 279 278 276 276 277
299 297 296 296 296 296 296 298 298 298 297 296 296 296 294 294 294 294 293 293 293 294 295 295 295 294 293 292 290 289 288 288 287 287 287 287 287 286 285 285 286 286 285 285 285 285 285 285 285 286 286 286 285 285 286 288 287 287 286 284 284 282 281 280 280 279 279 279 279 279 280 281 282 283 284 284 284 283 280 280 279 278 276 275 279
296 295 291 294 295 296 297 297 297 295 295 295 295 294 293 293 293 292 291 293 294 295 294 294 294 292 292 290 289 288 288 287 287 287 287 287 286 286 285 285 285 285 285 284 284 284 284 284 285 285 285 286 286 285 285 287 287 286 286 285 283 283 282 281 280 279 279 278 278 278 279 281 282 283 284 284 283 283 282 281 280 278 278 279 279
292 289 291 294 293 294 294 293 293 294 294 294 294 292 292 292 292 291 292 294 293 294 294 293 293 292 290 288 288 287 288 287 287 287 286 285 286 285 285 285 285 284 283 283 283 283 283 283 283 284 284 285 285 285 285 286 286 286 286 286 284 283 283 281 280 279 279 279 278 278 278 280 283 283 283 283 283 283 283 281 279 280 280 280 277
293 293 292 293 294 293 292 291 291 292 292 292 291 290 290 289 291 291 292 293 292 292 291 290 289 289 288 287 287 287 287 287 286 286 286 285 285 284 284 284 284 283 283 282 282 282 282 281 282 282 283 284 285 285 285 285 285 286 286 286 285 284 285 282 281 279 279 279 279 279 279 280 283 283 283 282 283 283 282 280 281 280 279 278 276
290 290 291 293 292 291 290 290 290 291 290 290 289 289 289 289 289 292 291 291 291 290 289 288 287 287 286 286 286 286 286 286 286 286 285 284 283 284 283 283 283 282 282 281 281 281 281 280 280 281 282 283 284 285 285 284 284 285 286 286 285 285 285 282 282 281 281 280 279 279 279 281 283 283 282 282 282 282 279 280 280 278 277 276 273
290 289 290 291 291 289 288 288 289 289 290 288 288 287 287 287 289 289 288 288 288 287 287 287 286 286 286 285 285 285 285 285 285 285 284 284 283 283 282 282 282 282 281 281 280 280 280 280 280 280 281 282 282 284 284 284 284 284 285 285 285 284 284 283 281 281 280 280 280 281 281 282 282 282 281 282 281 280 279 279 277 276 274 272 272
288 288 288 288 288 287 287 286 287 288 289 288 288 287 286 287 288 288 288 287 286 286 286 285 285 285 285 285 284 284 284 285 285 285 284 284 283 282 283 282 281 282 282 281 281 280 280 280 280 280 281 281 281 282 283 283 284 284 284 284 285 284 283 283 281 280 280 281 281 281 282 282 281 280 280 278 276 276 277 276 275 274 272 272 272
287 286 287 287 286 286 285 285 285 286 286 286 285 285 286 286 286 287 286 286 286 285 285 285 284 284 284 284 284 283 283 283 284 284 284 283 282 282 282 281 281 281 281 281 281 280 280 280 280 280 280 280 280 281 281 282 283 283 283 283 283 283 283 282 280 279 279 280 280 280 280 280 279 280 278 277 275 275 273 272 271 271 271 271 270
286 286 286 286 286 285 285 285 285 285 284 283 282 282 283 284 285 285 285 285 285 285 285 284 283 283 283 283 284 280 282 282 283 283 283 283 282 282 282 281 281 281 281 280 281 280 279 280 280 280 280 280 279 279 280 281 282 282 282 282 282 282 281 281 279 278 278 279 279 279 279 278 276 275 274 272 271 271 270 270 270 270 270 270 270
285 285 286 286 285 284 284 284 283 283 282 281 280 280 281 281 283 284 285 285 284 283 282 282 282 282 282 282 283 282 283 282 282 282 283 283 282 282 282 282 283 284 283 282 281 281 281 281 281 281 280 279 279 279 279 282 282 283 282 282 281 281 281 281 280 279 278 278 277 276 274 274 272 271 270 269 269 268 269 269 268 269 268 267 267
284 284 284 284 283 283 283 283 282 281 280 279 278 279 279 280 281 282 283 283 282 282 281 281 281 281 281 281 281 281 281 281 281 281 281 281 280 282 282 282 282 283 283 282 283 282 282 282 282 282 282 280 279 279 282 282 282 283 283 283 282 283 282 281 280 281 278 275 274 273 272 271 270 269 269 269 269 268 268 267 266 268 268 267 267
284 283 282 282 282 282 282 280 279 278 277 277 276 277 277 277 278 280 282 282 283 282 281 280 281 281 280 281 281 280 280 280 280 280 280 280 280 280 281 280 280 282 282 282 282 281 281 283 282 281 282 284 283 282 282 282 282 282 283 283 282 283 283 282 282 278 275 273 273 271 271 270 270 270 269 270 270 269 269 268 267 267 267 267 268
Wind_Speed
8 9 12 14 15 13 13 12 12 13 14 15 16 16 16 15 13 13 12 13 11 10 10 10 10 9 8 9 8 9 8 8 7 7 9 8 9 9 9 9 9 8 8 8 8 7 6 6 7 6 6 5 5 6 5 3 3 3 2 2 2 3 1 2 2 3 5 2 0 2 2 3 3 2 2 3 3 3 3 3 3 3 4 4 3
8 9 11 13 13 14 13 12 13 15 14 15 16 16 16 16 16 15 13 14 14 13 11 11 11 11 10 10 9 8 9 9 9 8 9 8 10 10 9 10 9 9 9 9 8 8 7 6 7 6 6 6 6 5 3 3 3 2 1 2 2 3 2 1 1 4 4 2 2 1 4 3 3 2 2 4 3 3 3 3 3 4 4 3 2
11 11 12 12 14 15 14 13 13 15 15 15 14 15 16 16 16 15 14 14 15 14 12 12 12 11 11 10 10 8 9 9 9 10 10 10 10 10 10 11 10 10 10 10 8 8 8 7 6 6 7 6 5 5 5 5 5 5 5 4 3 3 2 1 1 2 3 3 2 2 5 5 3 3 2 4 4 3 2 3 3 3 5 3 2
12 13 15 14 15 14 14 13 14 13 13 14 15 16 14 15 16 16 15 14 13 15 12 12 12 12 11 10 11 10 9 10 11 11 11 12 12 11 10 11 11 11 11 10 8 9 8 8 6 6 6 5 5 6 6 6 6 5 5 5 4 4 4 4 2 1 3 3 3 3 1 2 6 4 4 4 4 4 3 4 4 4 3 3 2
12 13 14 14 15 16 17 16 14 14 14 15 15 15 13 17 17 16 14 15 13 13 14 13 12 12 11 11 9 10 10 9 10 10 12 11 10 10 11 12 11 11 9 10 9 10 8 7 7 6 6 6 6 7 7 7 6 5 5 6 7 4 4 4 2 1 2 2 3 2 3 4 3 4 2 5 5 5 3 4 3 4 4 4 3
12 13 14 15 16 15 15 16 16 15 16 16 16 17 16 15 16 15 13 13 14 15 16 14 13 12 12 11 11 10 11 12 12 12 12 11 11 10 10 11 11 10 9 11 10 9 9 9 8 8 8 6 7 7 5 4 6 5 6 6 5 4 4 3 4 3 3 0 1 3 3 3 1 1 3 3 3 3 4 4 4 4 3 2 3
11 10 10 13 13 14 15 16 17 16 16 15 15 16 18 15 15 16 14 13 13 13 16 13 14 12 14 15 13 13 13 12 11 9 8 9 8 10 10 11 12 10 10 11 11 10 9 8 8 8 8 7 4 4 4 5 5 5 5 5 4 3 2 4 4 3 2 2 1 2 3 3 3 1 2 1 3 3 4 2 4 3 2 1 2
11 12 12 12 14 15 16 17 16 17 16 15 15 15 17 17 16 16 13 13 12 13 16 15 15 15 16 15 13 13 14 14 13 11 10 9 10 10 9 9 11 12 11 10 9 8 7 8 8 8 7 4 4 5 4 4 5 4 6 5 3 3 4 4 4 4 4 4 2 3 3 3 3 4 3 2 1 1 1 3 5 3 1 1 1
13 11 13 14 14 15 14 15 16 16 13 14 14 14 15 15 15 15 15 14 14 15 14 17 14 13 14 14 11 11 13 13 10 10 11 11 12 11 11 11 12 11 11 10 10 9 7 7 7 7 4 6 6 6 6 7 6 5 6 6 6 4 5 4 4 5 5 5 5 3 3 3 3 3 2 1 1 1 1 1 2 2 1 2 1
12 14 13 14 14 13 14 12 12 13 12 12 12 11 12 13 15 16 16 14 14 16 15 16 16 12 14 15 16 15 12 12 11 11 11 11 12 13 11 11 10 9 9 8 7 9 9 7 6 7 8 8 7 7 7 7 8 7 6 6 5 5 3 4 4 4 4 4 4 4 4 4 3 2 2 2 1 0 0 2 2 2 2 2 1
11 12 11 11 11 11 10 12 13 11 10 12 12 12 12 13 15 17 17 14 14 15 16 17 16 15 15 14 16 16 15 13 13 13 12 12 12 12 12 9 7 6 7 7 7 8 9 7 7 8 9 8 8 8 7 5 4 5 4 3 5 6 4 5 4 1 3 3 3 4 5 5 4 4 5 4 2 2 2 2 2 1 3 4 2
10 9 10 9 8 9 10 12 12 12 11 12 12 11 12 13 14 16 16 16 14 14 16 16 15 17 16 15 15 16 16 13 14 14 14 14 13 12 9 7 9 10 10 9 9 7 7 8 8 8 7 8 9 8 8 6 5 5 5 5 6 6 5 5 4 4 4 4 3 2 2 1 1 1 2 2 3 1 1 2 2 1 3 3 2
9 8 9 9 10 10 11 12 11 11 12 14 13 12 12 13 15 16 16 17 15 15 16 16 16 16 16 16 14 13 15 15 14 13 12 14 13 10 8 8 7 8 8 8 7 9 7 7 6 6 7 8 7 7 7 7 6 5 5 6 6 7 6 7 6 6 6 6 4 3 2 2 2 2 2 2 1 1 1 2 2 2 3 3 2
5 6 7 7 7 7 7 7 9 9 10 10 11 11 11 11 14 16 17 16 15 15 16 16 17 16 16 15 14 13 14 14 14 13 10 9 7 9 9 9 10 10 10 9 9 9 8 8 7 6 6 6 7 7 8 7 5 7 6 7 9 8 7 8 6 6 4 4 4 4 3 3 3 2 2 1 2 2 2 2 2 2 4 3 2
3 3 4 4 2 1 2 4 5 6 7 8 9 10 10 11 13 16 15 15 17 17 15 17 15 16 15 15 14 13 14 13 13 12 10 10 10 11 11 12 8 9 9 8 10 11 9 8 8 7 6 6 6 6 4 6 7 8 7 8 8 6 7 6 6 6 6 6 4 4 4 3 3 2 1 1 1 1 0 1 1 2 1 2 1
4 3 4 5 5 4 4 5 6 6 8 8 9 9 10 12 13 15 16 15 16 16 15 15 15 13 15 15 15 14 11 10 10 9 10 11 11 11 11 13 10 10 9 10 11 12 10 8 9 7 7 7 7 7 8 7 7 8 8 8 7 4 7 7 6 6 6 6 5 5 4 4 2 2 1 1 1 1 0 1 1 2 2 2 2
3 4 4 4 4 6 7 8 7 7 7 9 9 9 10 10 10 13 14 13 15 16 15 14 14 14 15 15 15 15 14 14 13 11 12 11 10 11 9 13 10 9 8 9 9 10 10 11 9 9 8 8 7 7 7 7 8 7 7 7 7 6 6 7 6 6 6 6 5 4 4 4 3 3 2 2 1 0 0 0 1 1 1 2 3
7 7 7 7 7 7 7 7 8 8 8 8 9 7 7 9 9 12 12 14 14 14 15 14 15 14 14 15 15 15 14 15 14 12 12 10 9 9 10 12 10 10 10 10 10 11 11 12 11 9 9 9 9 9 9 9 8 6 7 7 6 7 6 5 5 6 6 5 5 4 4 3 4 2 3 2 1 0 0 0 1 1 1 1 1
4 7 7 7 7 7 7 7 6 6 6 6 6 7 7 8 9 10 12 12 12 10 11 11 12 10 10 13 15 14 13 13 12 10 10 11 11 11 11 12 10 11 9 10 10 11 11 11 10 9 8 9 8 8 9 8 8 6 7 6 6 6 6 6 5 5 5 5 5 5 3 4 3 4 4 2 1 1 1 0 0 0 1 1 1
3 3 4 4 4 4 5 5 6 6 6 5 5 5 7 7 8 8 8 9 10 11 10 11 10 8 8 9 12 12 12 10 9 10 10 11 11 12 12 11 11 9 10 11 11 11 11 11 10 10 8 7 7 7 8 8 7 6 6 5 6 6 7 7 6 4 4 5 5 5 4 4 4 3 3 2 2 1 1 0 0 0 0 1 1
2 2 3 3 3 3 3 3 2 2 2 2 3 4 4 5 7 8 9 8 8 9 7 5 6 8 8 8 7 8 9 8 10 11 12 12 11 11 10 9 8 10 9 11 11 12 11 10 11 11 10 9 8 8 7 7 7 7 6 6 6 7 8 6 6 6 4 5 5 5 4 4 3 3 3 2 2 2 1 0 1 0 0 1 0
3 4 4 3 3 3 2 1 1 2 2 2 2 3 4 6 6 7 8 8 9 8 7 8 8 8 9 10 11 10 10 9 10 11 11 11 9 9 8 9 10 9 10 11 12 10 10 11 11 11 10 10 9 8 8 8 8 9 7 6 7 8 8 7 7 7 5 4 4 5 5 4 2 3 3 3 2 2 1 1 1 0 1 0 0
3 3 3 3 3 3 2 1 2 2 2 3 4 4 5 5 6 5 7 8 8 7 5 5 7 7 9 8 7 7 7 7 8 7 8 8 7 7 8 9 9 9 8 10 12 12 13 12 10 10 10 10 9 10 9 8 9 10 9 8 7 8 8 9 8 7 6 5 5 5 5 4 3 3 3 2 2 2 1 1 1 0 0 0 0
1 2 3 3 3 2 3 4 4 4 4 4 5 5 5 5 6 5 6 6 6 6 7 7 5 4 2 3 5 6 8 9 10 9 8 6 6 6 7 9 9 8 10 7 8 10 10 12 12 11 11 10 10 9 9 8 10 10 10 9 8 7 7 8 8 8 7 6 6 6 5 5 4 4 3 3 2 2 2 2 2 1 1 1 1
3 3 3 3 4 5 5 4 4 5 5 5 5 5 5 5 6 6 6 6 5 5 7 8 7 5 6 5 5 5 7 8 8 6 7 5 5 6 6 8 8 8 9 9 8 7 8 9 10 12 11 11 10 10 10 9 8 7 8 8 8 7 7 7 7 7 6 6 6 6 6 5 4 5 4 3 3 2 2 2 1 1 1 1 1
3 3 4 5 4 3 4 5 5 5 5 5 5 5 4 4 5 4 5 6 7 7 8 8 8 7 6 6 6 5 6 6 5 4 4 4 5 5 6 5 8 10 8 8 13 11 10 9 9 11 11 10 10 10 10 9 9 8 8 7 7 7 7 7 7 6 5 4 5 6 6 5 5 5 5 4 4 3 2 2 2 1 1 1 2
3 4 3 3 3 4 4 4 5 5 6 5 5 5 5 5 5 6 5 5 7 7 8 8 7 7 7 6 3 3 3 3 3 3 3 4 4 5 6 7 6 8 9 8 6 10 8 9 8 9 11 11 11 10 10 10 9 9 9 9 8 7 7 7 6 6 5 4 5 5 5 4 4 3 4 5 5 4 3 2 2 2 1 1 1
4 4 4 3 1 1 3 4 5 4 4 4 5 6 6 6 6 6 6 6 5 6 7 7 6 6 6 6 6 3 2 2 3 3 4 4 4 4 4 4 6 8 9 10 11 11 8 7 6 6 8 10 11 10 10 10 10 10 9 8 8 8 8 7 7 6 5 4 5 5 4 4 4 3 4 4 4 4 3 3 2 2 1 1 1
2 1 1 1 2 2 3 5 5 5 6 6 6 6 6 7 7 7 7 7 6 4 4 4 4 5 5 5 5 4 4 4 4 4 4 4 4 4 4 5 5 6 6 7 8 11 11 10 7 7 7 8 10 11 10 11 11 10 9 9 9 9 9 9 7 6 5 5 5 4 4 3 5 6 8 6 5 3 2 3 3 2 1 0 0
3 2 1 2 2 3 3 5 6 7 7 7 7 8 8 8 8 8 7 6 5 5 4 5 5 5 3 3 4 3 4 4 5 5 5 5 5 5 5 5 5 4 4 4 4 5 10 12 11 10 9 8 8 7 11 17 13 11 10 9 8 8 9 9 9 8 6 5 5 4 5 9 8 7 7 7 6 4 4 2 2 1 1 0 0
4 2 3 3 3 3 4 5 7 8 9 8 8 7 7 7 8 8 7 6 5 6 4 4 5 2 1 2 3 4 4 5 5 5 5 6 6 6 6 6 5 5 6 6 6 7 5 7 11 12 12 9 8 7 15 16 16 16 11 10 10 9 8 8 8 8 8 7 6 6 5 6 7 7 6 8 7 6 5 4 3 3 2 1 1
5 5 4 4 4 5 5 6 7 7 7 7 7 7 7 7 8 9 7 6 6 6 6 5 2 2 2 2 2 3 4 4 5 6 6 6 7 7 7 8 8 7 6 6 5 5 8 7 8 10 11 10 9 12 17 17 17 17 13 10 9 9 8 8 8 8 7 7 7 7 6 5 5 7 6 6 6 7 7 6 5 4 3 3 3
8 7 6 4 4 5 5 5 5 6 6 7 7 6 6 6 7 7 5 7 6 6 6 5 4 4 3 4 3 3 3 4 5 4 6 6 7 7 7 8 9 8 8 9 9 7 7 8 9 11 11 10 9 14 17 17 17 16 15 12 8 9 9 8 8 8 8 8 7 7 6 5 3 5 7 6 6 6 7 7 5 4 4 5 4
8 7 7 5 4 4 5 6 5 5 6 5 7 7 5 5 6 6 7 6 7 6 6 7 6 5 5 5 5 4 4 4 4 5 5 6 7 7 5 4 6 6 8 8 8 9 8 10 10 10 10 9 9 13 15 16 16 16 16 11 8 9 8 8 8 8 7 8 8 8 7 6 6 6 5 6 6 6 6 6 6 5 4 6 6
8 6 5 7 7 5 3 4 5 5 5 5 5 6 6 6 6 6 6 6 6 7 6 6 7 6 6 6 6 5 5 5 5 3 3 4 6 5 5 5 6 8 8 9 9 8 8 7 9 7 8 10 9 15 12 13 12 12 12 11 8 7 7 7 6 6 7 7 7 7 7 7 8 7 6 8 7 6 6 5 3 2 2 1 2
8 5 6 5 6 7 6 4 3 4 4 4 6 7 7 7 7 7 7 7 7 7 6 6 6 6 6 6 6 6 6 5 5 4 4 4 4 5 7 6 5 4 3 3 3 4 8 9 8 10 9 9 9 15 13 14 15 14 14 8 8 8 8 7 6 6 6 5 5 6 6 7 8 7 9 12 8 5 4 4 4 2 2 2 2
11 1 1 1 2 4 3 4 4 4 4 4 5 7 8 7 7 6 6 7 7 7 7 7 6 6 7 7 6 6 6 4 4 5 6 5 5 5 4 3 5 5 5 5 5 6 6 8 8 8 9 9 10 14 16 15 16 17 11 7 7 6 6 7 7 6 5 5 5 6 6 7 7 7 11 13 10 7 5 6 5 4 3 2 2
8 3 2 5 3 2 2 4 5 5 5 4 4 6 7 8 7 7 7 6 7 8 7 6 6 6 6 6 7 7 5 5 5 6 6 4 4 3 4 4 6 7 6 5 5 5 5 6 8 8 10 10 9 13 16 15 17 16 12 9 8 8 7 6 5 6 5 5 5 7 7 7 7 7 14 14 13 9 6 7 6 6 5 4 4
4 2 3 1 3 3 3 3 4 6 6 6 6 6 6 6 6 6 6 6 6 6 5 6 5 6 6 6 6 6 5 6 6 6 5 5 5 5 5 4 4 4 5 4 5 6 6 5 6 7 9 10 9 11 15 14 16 14 11 7 8 8 9 7 6 6 5 4 5 6 9 7 8 9 16 14 14 10 6 7 7 7 6 6 5
2 3 3 2 2 2 1 1 1 2 5 6 6 5 5 5 6 6 6 7 7 6 5 4 4 5 6 6 5 6 5 6 6 5 5 5 4 5 5 5 4 3 4 4 4 4 8 7 6 6 6 6 8 8 11 15 14 14 12 8 7 10 10 9 7 6 6 5 6 6 8 12 12 14 15 15 14 14 8 6 7 6 6 6 4
1 1 3 1 1 1 1 3 4 4 4 5 5 6 5 5 6 6 5 6 6 7 6 6 6 6 6 6 4 5 7 6 5 6 5 5 5 6 6 6 6 5 5 5 7 6 6 6 4 4 4 4 6 8 10 14 15 15 15 12 9 10 10 10 9 6 5 6 6 6 7 12 15 15 15 15 14 15 11 6 6 5 4 4 4
3 3 1 1 2 3 4 5 4 4 4 4 5 6 6 6 6 6 5 4 5 6 6 6 7 7 5 5 5 4 4 5 5 6 6 5 4 5 5 6 4 6 7 7 7 4 3 3 2 2 2 3 6 10 9 14 16 17 16 14 10 9 9 11 8 7 6 5 6 7 7 13 18 17 15 15 15 14 14 7 6 8 8 8 5
3 3 4 1 3 4 6 6 5 5 4 2 3 4 4 4 4 3 3 4 5 5 6 6 5 5 5 5 5 6 5 5 6 6 7 7 6 6 5 5 6 6 6 7 7 6 5 3 2 2 2 3 5 8 13 11 15 16 16 14 10 5 11 9 10 10 10 8 5 6 7 15 19 17 15 15 15 15 12 7 10 10 9 8 6
3 3 3 3 5 6 6 7 6 5 4 3 3 3 3 3 3 4 4 4 4 4 4 5 5 5 5 4 5 5 4 4 5 6 6 7 6 6 5 5 6 6 5 5 5 5 6 6 7 5 4 4 4 5 10 12 11 15 15 15 12 9 12 7 6 7 6 5 6 6 8 17 18 16 15 15 14 13 9 11 11 11 9 8 3
4 4 4 4 6 7 7 8 6 6 4 2 2 4 4 4 3 4 2 3 3 4 4 4 4 4 4 4 4 3 5 5 5 6 7 5 6 6 5 4 4 4 4 4 4 4 4 4 4 4 4 4 4 4 5 9 12 12 14 14 12 10 11 10 6 3 5 4 6 10 13 17 16 14 15 14 12 13 12 11 11 11 9 4 4
5 5 6 6 7 7 7 8 7 6 4 3 2 3 5 3 4 3 4 4 5 5 5 5 4 4 5 5 5 4 4 4 4 2 3 3 7 8 6 5 5 4 4 4 4 4 3 4 4 3 3 4 4 4 5 6 8 9 9 12 13 12 11 11 4 2 5 8 11 12 14 15 13 11 9 7 6 7 11 11 11 10 5 4 4
5 4 4 6 6 7 7 7 7 4 5 4 5 5 5 4 3 3 4 5 5 5 6 5 5 4 4 4 5 3 3 3 2 3 2 3 3 3 4 5 5 5 5 5 5 4 4 4 6 7 4 4 3 5 5 5 7 7 7 8 9 9 10 10 5 4 6 6 9 9 8 9 7 12 9 8 6 9 9 8 6 5 4 3 3
5 4 4 6 7 8 8 7 6 5 5 5 6 6 5 5 4 4 4 5 5 5 5 5 5 4 3 3 3 5 4 3 2 3 3 3 3 3 4 5 8 8 8 8 8 8 10 10 11 9 6 3 4 4 6 8 9 8 8 8 8 8 9 7 7 5 5 5 6 7 8 6 5 5 5 3 3 5 5 6 6 5 4 4 5
4 3 4 6 8 8 8 8 7 5 5 6 6 5 4 4 3 3 3 5 5 6 6 6 4 4 4 3 2 3 2 2 2 1 1 2 3 4 4 2 3 4 6 8 7 7 8 7 7 8 10 7 3 9 14 10 8 8 8 8 8 7 6 5 7 9 7 5 5 5 5 7 6 6 6 6 5 5 6 5 4 4 4 3 3
5 5 7 8 8 8 9 8 6 5 6 6 5 5 5 3 3 2 3 6 6 5 5 4 3 3 3 3 3 2 1 2 2 1 1 0 5 3 3 0 2 6 4 2 1 3 3 5 6 6 7 12 12 3 9 8 9 9 9 6 2 4 6 5 9 15 9 7 7 7 7 7 6 6 6 6 6 6 5 5 5 6 5 5 5
5 7 8 8 8 7 8 8 6 5 5 6 5 5 5 5 4 3 3 5 5 5 4 4 3 3 3 3 2 2 2 1 1 1 1 1 1 0 1 2 4 4 1 5 2 0 1 1 3 5 4 9 5 6 9 12 14 12 11 10 7 8 11 11 14 10 7 8 9 8 8 7 6 6 7 8 8 6 5 5 6 6 5 5 5
Wind_Direction
202 199 187 190 191 192 194 196 196 200 204 203 204 207 207 207 201 205 197 205 200 196 202 202 204 203 206 207 208 211 214 214 211 218 223 222 217 209 203 204 210 204 209 210 212 214 220 221 221 217 215 219 229 230 228 224 236 256 258 198 289 292 205 194 274 302 287 260 131 146 103 93 106 179 106 92 100 73 55 55 44 25 14 9 16
190 187 185 188 191 191 191 194 194 197 202 205 205 204 206 207 207 208 202 202 205 200 196 199 203 204 201 205 205 206 208 211 210 210 220 223 222 213 209 209 206 203 208 217 215 215 219 222 221 221 209 218 222 227 229 227 227 235 261 262 244 249 253 96 53 308 258 8 338 155 140 131 131 165 130 111 108 85 77 59 41 26 10 0 355
195 191 183 188 190 191 192 193 196 200 199 205 206 204 205 207 209 206 204 201 203 202 196 198 200 203 200 199 199 202 211 211 213 214 211 217 220 217 213 215 210 207 206 213 218 216 220 221 219 219 220 218 218 217 227 239 233 217 211 237 204 218 160 72 321 321 318 327 310 262 170 165 165 172 162 128 121 92 97 79 52 31 10 356 348
203 192 188 189 189 190 194 196 197 196 200 202 204 205 205 208 208 207 207 203 201 202 199 197 197 199 204 205 199 207 207 212 221 224 220 220 221 216 215 216 212 214 214 208 210 219 218 220 221 220 223 221 227 229 227 233 218 202 195 224 199 164 197 160 163 319 309 326 211 217 111 209 166 169 142 118 112 112 99 89 55 32 8 356 2
207 201 193 187 188 194 196 197 194 196 199 201 202 203 206 207 207 205 206 207 203 196 196 199 192 201 207 213 216 211 221 221 219 220 221 217 215 212 214 212 212 213 210 210 210 218 220 221 225 222 223 225 223 231 233 218 202 193 195 204 202 231 228 134 130 99 283 346 316 259 187 208 77 100 180 142 159 141 123 114 82 45 24 357 359
217 211 196 188 190 193 195 196 197 200 200 203 201 203 205 206 205 204 205 206 204 200 194 196 196 195 199 202 207 211 213 213 215 216 215 213 212 216 219 216 212 210 210 213 213 213 221 223 223 225 226 224 220 225 230 203 189 192 190 201 206 227 280 196 147 146 228 161 352 28 8 12 57 85 235 150 137 96 137 128 89 57 41 2 354
226 229 208 191 192 189 195 197 199 201 204 197 198 203 203 203 203 202 203 205 201 198 192 196 200 198 201 205 207 209 213 219 218 220 217 214 212 213 215 214 212 208 209 214 214 211 218 219 220 224 224 226 217 214 204 198 192 186 172 196 194 186 193 252 228 172 188 168 188 54 54 45 39 345 72 322 163 170 150 135 107 93 49 23 6
210 213 211 205 194 192 196 198 197 203 199 193 199 199 199 201 199 202 202 202 200 197 194 195 203 206 207 210 209 210 211 214 210 213 215 214 212 211 209 210 210 212 213 212 212 205 209 218 216 224 222 197 149 192 184 188 169 160 174 174 164 185 213 235 203 170 200 148 173 149 119 101 73 73 43 9 354 230 183 139 136 79 29 108 59
207 205 207 206 203 200 200 198 202 202 196 196 196 196 197 198 199 199 202 201 202 197 195 196 200 205 210 212 208 212 216 216 210 207 207 210 212 208 209 207 209 207 210 210 209 207 192 211 209 208 196 193 180 181 176 161 159 170 174 166 181 199 217 229 211 181 209 144 153 140 127 104 82 75 65 345 273 244 213 32 331 22 302 152 94
211 215 209 206 205 203 202 201 199 200 198 196 196 193 194 194 197 199 202 201 200 200 201 201 197 201 212 213 214 211 212 214 208 203 204 205 212 213 207 209 207 198 196 194 185 200 202 202 200 197 203 190 183 177 166 168 167 174 178 177 192 208 214 192 205 182 204 136 158 146 152 134 126 140 191 205 216 317 286 298 310 317 324 323 127
207 214 217 210 205 202 192 199 202 193 190 191 193 194 191 193 198 201 204 201 200 200 196 202 201 201 214 212 212 214 212 210 208 210 204 203 207 208 209 196 172 191 193 187 180 188 199 196 202 197 195 170 177 164 159 159 151 167 165 186 204 223 181 191 198 142 129 130 145 165 161 172 177 183 177 190 191 174 212 246 275 238 278 293 196
204 205 214 211 197 194 190 200 197 191 182 191 196 192 193 194 195 201 204 203 202 199 197 201 202 203 210 216 215 216 215 212 211 208 203 202 204 206 201 172 171 187 189 189 190 174 179 190 192 189 178 171 174 170 159 155 149 143 157 190 204 203 177 177 175 151 155 145 157 159 146 126 101 129 137 162 180 178 190 260 262 299 267 225 237
198 198 205 203 201 196 195 201 194 193 193 193 194 193 194 196 197 200 204 202 203 199 201 200 201 206 207 213 216 216 219 218 216 216 207 204 201 194 170 179 173 172 178 172 169 170 176 182 167 173 174 182 175 174 155 158 168 166 186 189 184 186 173 175 178 171 169 159 154 126 122 127 110 90 125 148 148 97 216 239 262 251 251 272 251
184 197 208 214 207 218 210 199 195 199 199 192 193 195 196 199 201 203 207 200 200 202 203 203 204 205 205 208 212 216 218 218 219 219 207 191 185 186 179 180 180 179 173 172 166 168 172 173 163 158 161 160 151 156 177 183 186 194 187 189 178 183 177 183 170 160 149 125 128 135 130 125 123 128 139 161 161 188 204 206 262 259 237 258 244
213 223 224 227 212 190 219 214 203 200 207 206 198 198 198 202 204 207 208 202 199 201 201 204 206 203 203 205 208 213 217 215 218 217 203 192 196 197 192 195 179 180 171 164 167 176 175 159 156 151 149 149 151 149 152 184 190 204 170 188 181 172 176 165 151 147 137 139 136 127 125 122 129 133 157 131 120 216 223 207 264 298 293 249 323
189 213 242 239 228 226 232 242 233 218 206 207 207 205 207 209 208 208 209 202 200 199 201 202 201 201 202 203 206 209 211 211 214 206 198 198 197 199 197 198 184 179 177 167 170 175 172 155 157 147 149 157 168 165 170 172 180 191 179 180 161 158 165 153 143 137 130 129 121 120 124 119 119 126 116 98 86 46 297 208 251 293 332 319 325
166 199 233 236 208 205 211 215 214 214 212 210 209 205 210 214 214 213 211 206 204 201 202 197 197 197 200 201 202 206 208 207 209 193 189 201 197 198 194 203 178 167 163 170 162 175 167 158 152 148 154 160 156 158 159 161 160 164 168 160 159 162 156 146 142 135 128 127 123 128 121 124 121 113 92 86 86 131 288 343 322 340 333 304 336
185 197 210 221 222 218 210 209 208 203 207 211 218 213 217 218 217 215 213 209 207 200 200 199 195 196 197 202 205 205 207 209 210 194 186 197 197 197 196 202 187 175 171 171 166 175 172 164 159 150 156 159 161 159 154 150 156 164 161 158 156 156 142 131 127 122 127 123 120 113 118 122 126 129 108 94 120 118 99 351 16 343 338 322 333
177 199 204 208 206 206 201 201 208 214 211 212 216 213 214 218 221 221 219 215 211 206 203 203 199 197 200 203 205 206 207 209 203 182 183 198 196 195 198 202 184 177 168 167 168 173 172 171 165 160 151 153 161 155 148 150 155 150 153 146 149 152 139 127 119 119 119 122 124 124 119 122 129 110 113 122 127 174 115 107 355 27 328 352 331
228 219 206 208 215 214 215 215 210 202 205 209 218 218 223 222 222 225 226 221 214 211 205 205 202 200 205 207 208 210 209 204 184 186 192 199 197 193 196 189 183 167 174 165 168 171 174 169 159 157 150 155 158 150 148 147 147 145 147 144 153 145 132 128 121 110 122 121 125 127 131 130 130 128 130 135 136 88 62 116 96 279 140 55 333
336 341 343 332 301 271 249 232 219 193 199 193 198 217 232 228 227 220 215 214 216 216 200 199 212 221 214 203 201 199 200 201 197 194 200 202 197 191 192 184 165 171 166 167 170 171 170 168 160 157 158 158 156 151 148 144 144 142 146 142 145 140 132 124 125 118 108 123 126 127 123 118 133 141 139 148 137 112 116 148 71 342 172 125 226
295 309 316 311 302 294 267 171 157 177 188 199 208 216 220 222 224 218 215 216 213 211 204 206 215 222 221 216 211 207 204 201 202 199 203 198 193 188 181 166 176 165 171 171 170 167 170 164 165 162 160 159 159 149 149 151 146 149 142 148 150 142 132 128 128 130 129 124 128 129 129 125 121 125 138 136 132 148 175 161 160 118 346 91 48
269 273 277 276 283 296 297 230 202 201 199 204 208 208 204 203 207 213 209 214 211 207 206 221 225 225 221 216 208 203 200 201 202 204 203 197 188 176 170 170 167 162 172 173 171 169 170 165 162 157 159 158 160 157 154 155 152 155 153 154 152 146 142 141 140 141 139 135 135 138 137 132 132 143 140 120 118 144 147 147 107 114 166 60 183
260 233 232 229 223 199 219 218 199 190 199 201 198 202 201 193 193 195 210 215 208 200 203 216 229 241 242 227 213 207 206 207 210 210 209 195 181 165 160 167 162 157 166 164 165 169 169 167 159 158 161 161 161 156 153 154 155 155 156 153 147 140 139 141 141 142 144 148 147 140 143 145 158 149 143 139 150 148 164 144 152 186 187 197 212
263 247 233 211 204 200 200 199 199 191 189 194 198 201 201 206 195 193 196 202 206 210 210 214 215 213 209 210 216 206 206 208 211 203 203 180 171 155 161 158 148 161 168 158 154 159 167 169 160 161 162 164 161 156 153 150 150 150 150 147 143 140 139 137 136 140 142 148 150 148 146 157 167 149 146 153 144 160 157 153 167 171 197 198 223
290 266 241 234 219 198 192 188 190 190 185 191 198 203 211 214 207 198 196 195 204 208 212 212 212 215 215 214 214 213 214 212 207 200 187 160 148 152 152 148 159 162 163 174 162 165 168 170 168 164 162 160 155 156 152 152 150 145 144 142 139 136 132 128 130 131 137 141 147 137 145 161 169 157 153 141 144 163 155 147 164 185 193 230 244
267 265 258 244 227 221 219 214 207 195 182 180 185 195 220 233 235 226 223 216 214 214 216 216 217 215 218 218 213 212 211 208 186 155 126 134 149 154 156 160 163 159 159 163 174 160 165 164 168 162 161 156 152 149 149 148 148 147 147 144 138 132 125 122 120 123 124 125 126 136 144 159 160 148 144 155 160 159 160 167 165 170 223 228 265
216 221 223 233 250 214 202 216 213 210 200 189 182 185 201 213 223 225 226 223 222 220 222 222 216 214 215 207 210 194 170 144 120 119 135 142 145 151 157 150 153 160 167 172 169 167 159 149 147 159 160 151 150 151 149 148 148 149 148 145 143 138 131 123 118 117 119 124 123 129 141 141 141 145 150 152 159 160 151 173 152 177 212 224 269
253 260 330 315 294 236 212 204 207 203 203 200 195 191 198 211 215 215 215 220 214 206 217 213 205 207 196 174 156 159 144 124 127 130 135 140 146 148 140 147 162 168 173 182 181 163 151 147 142 145 155 152 154 158 156 153 150 151 149 146 145 142 138 133 128 123 128 128 125 122 134 123 81 79 72 71 66 55 156 167 164 164 187 194 336
281 306 291 265 248 245 220 210 201 203 205 204 200 199 194 203 207 207 202 196 166 193 210 215 213 216 192 164 153 137 133 132 140 149 150 149 148 148 148 152 159 155 145 139 155 165 159 156 153 153 155 160 162 162 157 154 155 153 152 147 143 143 142 140 138 137 135 136 131 119 93 107 116 114 115 121 120 90 41 49 144 147 173 143 200
237 222 214 200 215 219 220 213 217 210 204 200 206 200 190 193 204 206 201 189 177 176 198 199 219 216 175 142 146 150 140 148 150 139 140 144 145 146 150 150 151 147 144 148 161 159 157 157 157 157 159 164 163 157 154 154 154 152 148 151 149 145 141 142 148 150 149 146 138 125 132 134 130 133 138 141 139 141 141 115 111 84 63 141 183
219 217 193 187 197 206 212 220 215 211 208 207 199 194 186 197 194 206 196 161 174 178 179 188 190 146 157 164 153 142 151 153 150 155 153 151 145 149 157 159 157 154 151 144 161 177 151 156 158 157 160 165 163 154 157 156 157 157 157 152 149 146 150 151 154 151 147 147 145 148 153 162 169 164 153 151 155 162 167 168 165 172 185 209 231
239 223 216 201 205 211 211 211 207 205 201 199 183 180 198 189 187 198 166 165 180 177 177 176 164 160 164 156 141 151 157 163 172 155 148 144 153 155 158 159 167 163 148 158 163 162 162 157 162 163 161 159 155 155 158 158 158 158 156 150 148 150 151 155 154 152 150 153 153 155 158 166 133 139 156 158 160 174 186 186 184 174 200 208 222
227 220 222 202 201 205 210 216 211 204 199 187 179 178 179 167 164 163 163 179 179 182 182 176 164 164 158 153 154 160 166 164 149 150 155 157 161 169 162 155 143 146 162 164 164 166 161 164 167 167 162 158 154 161 154 154 154 156 157 151 148 150 150 149 153 151 152 157 162 162 161 161 162 172 176 167 176 180 180 192 191 194 196 194 210
258 251 228 230 231 229 214 203 207 204 186 163 161 162 137 137 143 154 171 176 187 185 187 175 166 162 153 156 160 166 165 152 146 152 161 172 169 155 153 159 162 167 169 171 168 165 168 165 162 165 162 162 162 161 147 147 147 146 146 146 144 143 139 140 140 143 152 158 162 164 163 160 161 173 178 178 180 183 175 177 168 177 202 219 219
252 233 240 221 220 222 222 220 127 139 186 193 172 157 149 160 151 166 178 188 188 191 186 177 169 157 160 164 164 165 162 157 157 154 157 170 169 168 166 158 155 157 153 144 156 162 163 167 168 169 167 162 160 159 149 152 153 153 146 143 147 147 142 142 137 139 144 155 163 165 160 158 164 170 177 183 184 175 164 155 165 181 209 240 245
273 268 138 159 195 207 184 131 138 153 169 199 168 150 151 149 156 168 173 182 187 191 190 183 174 166 168 165 163 162 160 158 160 163 174 174 166 159 152 144 151 162 161 165 168 171 170 168 168 173 168 157 156 165 161 159 159 156 148 150 148 142 140 139 143 144 149 158 163 167 159 158 163 170 174 181 183 177 154 164 174 185 197 215 244
265 269 160 162 166 101 88 166 159 156 157 155 159 158 151 149 159 160 169 184 189 197 189 180 175 165 161 157 161 163 163 162 163 176 179 175 158 146 157 163 167 164 169 172 161 160 165 170 171 174 171 160 164 170 166 161 161 161 159 154 155 144 144 147 142 148 153 161 166 168 165 161 166 172 176 183 181 179 168 173 174 180 196 213 230
279 292 290 157 113 117 141 154 160 156 154 148 152 156 150 146 151 155 170 190 198 194 179 177 169 160 156 151 157 162 167 167 173 178 172 170 168 164 158 156 166 160 163 156 161 161 166 170 176 174 165 164 164 170 169 163 164 162 157 156 152 148 151 159 154 158 157 154 161 173 177 171 175 173 179 183 183 182 175 180 176 182 199 210 215
51 54 41 39 53 98 113 132 138 113 127 137 141 152 145 140 144 142 159 184 189 183 172 160 148 145 147 155 159 164 166 169 174 167 165 167 148 139 155 162 164 150 152 146 121 145 170 175 164 170 167 167 162 168 174 167 166 164 163 162 162 158 168 166 164 161 157 168 172 178 190 190 183 180 183 185 188 190 183 182 177 187 193 206 197
31 45 34 71 109 118 85 86 89 107 121 132 139 139 147 140 139 152 180 177 174 171 167 158 152 149 154 157 158 168 169 170 167 165 158 154 157 159 158 164 166 160 150 144 164 167 154 152 138 155 157 157 165 165 174 171 171 174 178 176 177 183 172 164 162 160 169 169 176 184 185 195 192 187 187 189 190 195 193 183 188 192 192 169 157
53 52 30 116 107 113 95 77 64 98 119 137 143 145 150 140 152 172 172 146 142 152 151 147 152 150 149 154 155 155 155 155 149 144 150 144 147 151 159 163 157 160 161 163 158 137 117 120 110 89 119 144 153 168 174 180 182 186 191 193 188 188 173 162 160 177 178 186 185 179 184 190 192 190 189 190 193 195 195 186 197 191 189 190 194
41 60 48 50 97 78 62 59 50 55 59 91 123 136 127 133 142 141 125 126 132 134 137 144 146 146 148 150 150 153 153 148 152 155 152 155 152 151 154 156 157 149 149 147 140 142 132 118 139 168 163 169 170 178 183 185 190 192 197 202 202 175 161 169 169 178 189 187 173 178 178 183 189 188 188 191 194 193 191 193 189 183 190 189 184
79 61 53 72 97 85 80 64 56 56 58 63 107 116 116 114 111 105 104 111 123 132 133 137 142 142 142 146 146 145 141 145 148 146 144 145 153 154 143 158 141 142 151 150 168 157 163 173 180 179 181 185 181 177 187 190 194 198 202 203 199 182 175 184 184 187 173 166 167 173 174 180 185 183 187 193 196 192 188 191 181 182 179 180 186
67 55 40 53 82 89 85 75 69 79 86 79 103 127 124 111 89 95 110 111 111 110 119 125 128 130 132 129 126 125 138 146 147 141 138 146 135 150 150 155 139 159 161 167 167 165 178 173 173 181 176 172 177 175 177 192 197 203 207 204 198 186 188 184 190 154 167 179 170 164 170 176 178 178 186 193 194 192 197 179 173 173 178 187 189
86 79 66 86 89 94 95 91 80 74 73 61 73 104 112 106 94 98 101 107 113 113 111 113 114 115 105 121 124 117 113 113 138 138 133 145 162 171 173 171 170 173 167 165 170 169 181 182 190 183 175 165 165 173 184 186 194 203 209 207 199 194 192 192 166 134 165 166 164 166 168 169 171 178 186 177 164 179 176 173 175 177 189 196 181
103 101 119 107 107 100 96 87 80 61 49 40 46 40 45 63 73 93 104 111 115 116 115 111 107 108 100 110 123 134 133 127 137 141 146 145 143 168 163 166 175 172 172 179 178 171 179 190 195 199 171 152 162 182 186 183 188 191 196 196 196 197 192 184 165 158 161 160 161 162 168 166 164 182 177 190 177 175 170 174 174 185 198 184 180
93 95 94 101 110 112 112 102 88 73 52 46 50 52 46 43 49 65 94 100 101 110 108 95 96 100 113 123 120 110 120 138 153 159 164 159 166 185 186 185 185 187 185 192 190 190 198 200 202 196 178 150 180 187 195 198 194 185 186 191 192 192 192 189 177 161 149 144 148 160 159 152 151 171 179 184 172 187 186 182 182 179 180 172 163
111 100 119 120 125 118 116 109 103 88 76 71 61 53 40 43 52 56 92 102 91 85 83 85 89 89 95 105 102 116 134 136 135 159 179 175 182 193 204 207 208 204 203 199 202 206 206 209 205 201 191 183 170 206 216 209 202 193 192 184 187 186 177 171 174 152 135 132 136 153 157 168 175 186 196 200 198 194 197 185 170 170 161 158 166
81 91 98 98 102 112 112 106 91 80 82 78 61 54 40 29 31 38 88 106 107 97 97 92 93 94 97 104 104 111 99 99 128 170 184 69 36 32 4 290 223 214 244 329 39 220 198 205 212 225 206 208 209 191 83 170 192 197 199 197 166 172 173 158 154 165 160 160 174 178 181 178 178 181 198 204 203 202 189 172 183 196 181 177 186
95 98 92 95 100 99 101 98 92 80 77 71 61 44 34 19 12 20 81 108 116 109 101 102 102 104 100 112 108 118 124 106 118 124 163 227 240 190 247 316 4 5 248 225 145 151 345 280 221 230 212 216 198 130 170 182 194 200 200 200 175 179 184 177 172 166 162 185 188 191 193 188 192 190 202 206 202 195 190 175 179 180 188 185 185